| time (UTC) | temp C | wind direction | speed KPH | gust KPH | rain 1hr cm | rain 24hr cm | rain mn cm | humidity % | barometer mb |
| 20260509192153 | 18 | 321 | 1.6 | 6.4 | 0.00 | 0.08 | 0.00 | 44 | 1019.4 |
| 20260509191653 | 18 | 303 | 1.6 | 12.9 | 0.00 | 0.08 | 0.00 | 46 | 1019.4 |
| 20260509191153 | 18 | 0 | 1.6 | 14.5 | 0.00 | 0.08 | 0.00 | 49 | 1019.6 |
| 20260509190656 | 18 | 155 | 3.2 | 14.5 | 0.00 | 0.08 | 0.00 | 44 | 1019.5 |
| 20260509190154 | 18 | 311 | 3.2 | 11.3 | 0.00 | 0.08 | 0.00 | 47 | 1019.5 |
| 20260509185653 | 17 | 80 | 3.2 | 14.5 | 0.00 | 0.08 | 0.00 | 46 | 1019.5 |
| 20260509185153 | 17 | 323 | 3.2 | 14.5 | 0.00 | 0.08 | 0.00 | 47 | 1019.7 |
| 20260509184913 | 17 | 195 | 1.6 | 8.0 | 0.00 | 0.08 | 0.00 | 47 | 1019.6 |
| 20260509184138 | 17 | 96 | 3.2 | 16.1 | 0.00 | 0.08 | 0.00 | 49 | 1019.6 |
| 20260509183633 | 17 | 76 | 4.8 | 16.1 | 0.00 | 0.08 | 0.00 | 46 | 1019.5 |
| 20260509183134 | 17 | 182 | 6.4 | 14.5 | 0.00 | 0.08 | 0.00 | 47 | 1019.6 |
| 20260509182634 | 17 | 355 | 0.0 | 9.7 | 0.00 | 0.08 | 0.00 | 48 | 1019.5 |
| 20260509182134 | 17 | 288 | 1.6 | 9.7 | 0.00 | 0.08 | 0.00 | 49 | 1019.5 |
| 20260509181634 | 16 | 286 | 0.0 | 9.7 | 0.00 | 0.08 | 0.00 | 52 | 1019.6 |
| 20260509181350 | 16 | 335 | 1.6 | 11.3 | 0.00 | 0.08 | 0.00 | 51 | 1019.6 |
| 20260509180625 | 16 | 327 | 0.0 | 11.3 | 0.00 | 0.08 | 0.00 | 54 | 1019.7 |
| 20260509180125 | 16 | 196 | 6.4 | 14.5 | 0.00 | 0.08 | 0.00 | 51 | 1019.5 |
| 20260509175627 | 16 | 188 | 3.2 | 16.1 | 0.00 | 0.08 | 0.00 | 51 | 1019.6 |
| 20260509175124 | 16 | 203 | 3.2 | 16.1 | 0.00 | 0.08 | 0.00 | 54 | 1019.7 |
| 20260509174625 | 16 | 113 | 4.8 | 14.5 | 0.00 | 0.08 | 0.00 | 52 | 1019.6 |
| 20260509174124 | 16 | 167 | 3.2 | 16.1 | 0.00 | 0.08 | 0.00 | 53 | 1019.5 |
| 20260509173625 | 16 | 317 | 3.2 | 16.1 | 0.00 | 0.08 | 0.00 | 53 | 1019.6 |
| 20260509173125 | 16 | 119 | 3.2 | 12.9 | 0.00 | 0.08 | 0.00 | 56 | 1019.5 |
| 20260509172625 | 15 | 302 | 1.6 | 9.7 | 0.00 | 0.08 | 0.00 | 53 | 1019.7 |
| 20260509172121 | 15 | 80 | 1.6 | 9.7 | 0.00 | 0.08 | 0.00 | 55 | 1019.8 |
| 20260509171615 | 15 | 187 | 1.6 | 11.3 | 0.00 | 0.08 | 0.00 | 55 | 1019.7 |
| 20260509171116 | 15 | 242 | 1.6 | 12.9 | 0.00 | 0.08 | 0.00 | 56 | 1019.7 |
| 20260509170616 | 15 | 125 | 0.0 | 12.9 | 0.00 | 0.08 | 0.00 | 56 | 1019.7 |
| 20260509170116 | 14 | 34 | 0.0 | 8.0 | 0.00 | 0.08 | 0.00 | 62 | 1019.7 |
| 20260509165616 | 14 | 341 | 0.0 | 6.4 | 0.00 | 0.08 | 0.00 | 64 | 1019.6 |
| 20260509165111 | 13 | 125 | 0.0 | 4.8 | 0.00 | 0.08 | 0.00 | 63 | 1019.7 |
| 20260509165054 | 13 | 316 | 0.0 | 4.8 | 0.00 | 0.08 | 0.00 | 74 | 1019.7 |
| 20260509164327 | 13 | 67 | 0.0 | 4.8 | 0.00 | 0.08 | 0.00 | 79 | 1019.7 |
| 20260509163607 | 13 | 67 | 1.6 | 4.8 | 0.00 | 0.08 | 0.00 | 80 | 1019.8 |
| 20260509163107 | 13 | 138 | 0.0 | 4.8 | 0.00 | 0.08 | 0.00 | 85 | 1019.8 |
| 20260509162608 | 12 | 94 | 0.0 | 8.0 | 0.00 | 0.08 | 0.00 | 83 | 1019.7 |
| 20260509162102 | 12 | 267 | 0.0 | 11.3 | 0.00 | 0.08 | 0.00 | 87 | 1019.7 |
| 20260509161821 | 12 | 130 | 1.6 | 11.3 | 0.00 | 0.08 | 0.00 | 88 | 1019.8 |
| 20260509161103 | 11 | 103 | 1.6 | 4.8 | 0.00 | 0.08 | 0.00 | 91 | 1019.8 |
| 20260509160831 | 11 | 151 | 0.0 | 4.8 | 0.00 | 0.08 | 0.00 | 94 | 1019.8 |
| 20260509160059 | 11 | 151 | 0.0 | 6.4 | 0.00 | 0.08 | 0.00 | 96 | 1019.8 |
| 20260509155558 | 10 | 151 | 1.6 | 6.4 | 0.00 | 0.08 | 0.00 | 96 | 1019.8 |
| 20260509155054 | 10 | 209 | 1.6 | 4.8 | 0.00 | 0.08 | 0.00 | 97 | 1019.8 |
| 20260509154549 | 10 | 212 | 0.0 | 3.2 | 0.00 | 0.08 | 0.00 | 97 | 1019.8 |
| 20260509154049 | 10 | 212 | 0.0 | 3.2 | 0.00 | 0.08 | 0.00 | 97 | 1019.8 |
| 20260509153550 | 9 | 211 | 0.0 | 0.0 | 0.00 | 0.08 | 0.00 | 97 | 1019.8 |
| 20260509153543 | 9 | 211 | 0.0 | 0.0 | 0.00 | 0.08 | 0.00 | 98 | 1019.8 |
| 20260509152809 | 8 | 211 | 0.0 | 0.0 | 0.00 | 0.08 | 0.00 | 98 | 1019.8 |
| 20260509152052 | 8 | 211 | 0.0 | 0.0 | 0.00 | 0.08 | 0.00 | 98 | 1019.7 |
| 20260509151540 | 8 | 211 | 0.0 | 0.0 | 0.00 | 0.08 | 0.00 | 98 | 1019.7 |
| 20260509151032 | 8 | 211 | 0.0 | 0.0 | 0.00 | 0.08 | 0.00 | 98 | 1019.7 |
| 20260509150524 | 8 | 211 | 0.0 | 0.0 | 0.00 | 0.08 | 0.00 | 98 | 1019.7 |
| 20260509150025 | 8 | 211 | 0.0 | 0.0 | 0.00 | 0.08 | 0.00 | 98 | 1019.6 |
| 20260509145521 | 8 | 211 | 0.0 | 1.6 | 0.00 | 0.08 | 0.00 | 97 | 1019.6 |
| 20260509145015 | 8 | 211 | 0.0 | 1.6 | 0.00 | 0.08 | 0.00 | 98 | 1019.5 |
| 20260509144731 | 8 | 212 | 0.0 | 0.0 | 0.00 | 0.08 | 0.00 | 98 | 1019.5 |
| 20260509144000 | 7 | 212 | 0.0 | 1.6 | 0.00 | 0.08 | 0.00 | 98 | 1019.5 |
| 20260509143450 | 7 | 212 | 0.0 | 1.6 | 0.00 | 0.08 | 0.00 | 98 | 1019.4 |
| 20260509142953 | 7 | 212 | 0.0 | 0.0 | 0.00 | 0.08 | 0.00 | 98 | 1019.4 |
| 20260509142448 | 7 | 212 | 0.0 | 0.0 | 0.00 | 0.08 | 0.00 | 97 | 1019.3 |
| 20260509141925 | 7 | 212 | 0.0 | 0.0 | 0.00 | 0.08 | 0.00 | 97 | 1019.3 |
| 20260509141638 | 7 | 212 | 0.0 | 0.0 | 0.00 | 0.08 | 0.00 | 97 | 1019.3 |
| 20260509140916 | 7 | 212 | 0.0 | 0.0 | 0.00 | 0.08 | 0.00 | 97 | 1019.3 |
| 20260509140859 | 7 | 212 | 0.0 | 0.0 | 0.00 | 0.08 | 0.00 | 97 | 1019.2 |
| 20260509140131 | 6 | 212 | 0.0 | 0.0 | 0.00 | 0.08 | 0.00 | 97 | 1019.2 |
| 20260509135406 | 6 | 212 | 0.0 | 0.0 | 0.00 | 0.08 | 0.00 | 97 | 1019.1 |
| 20260509134901 | 6 | 212 | 0.0 | 0.0 | 0.00 | 0.08 | 0.00 | 97 | 1018.9 |
| 20260509134402 | 6 | 212 | 0.0 | 0.0 | 0.00 | 0.08 | 0.00 | 97 | 1018.9 |
| 20260509133904 | 6 | 212 | 0.0 | 0.0 | 0.00 | 0.08 | 0.00 | 97 | 1018.8 |
| 20260509133354 | 6 | 212 | 0.0 | 0.0 | 0.00 | 0.08 | 0.00 | 97 | 1018.8 |
| 20260509132847 | 6 | 212 | 0.0 | 0.0 | 0.00 | 0.08 | 0.00 | 96 | 1018.8 |
| 20260509132342 | 6 | 212 | 0.0 | 0.0 | 0.00 | 0.08 | 0.00 | 96 | 1018.7 |
| 20260509131842 | 5 | 212 | 0.0 | 0.0 | 0.00 | 0.08 | 0.00 | 96 | 1018.7 |
| 20260509131342 | 5 | 212 | 0.0 | 0.0 | 0.00 | 0.08 | 0.00 | 96 | 1018.6 |
| 20260509130842 | 5 | 212 | 0.0 | 0.0 | 0.00 | 0.08 | 0.00 | 96 | 1018.6 |
| 20260509130057 | 5 | 212 | 0.0 | 0.0 | 0.00 | 0.08 | 0.00 | 96 | 1018.4 |
| 20260509125333 | 5 | 212 | 0.0 | 0.0 | 0.00 | 0.08 | 0.00 | 96 | 1018.4 |
| 20260509124830 | 5 | 212 | 0.0 | 0.0 | 0.00 | 0.08 | 0.00 | 96 | 1018.4 |
| 20260509124550 | 5 | 212 | 0.0 | 0.0 | 0.00 | 0.08 | 0.00 | 95 | 1018.4 |
| 20260509123828 | 6 | 212 | 0.0 | 0.0 | 0.00 | 0.08 | 0.00 | 95 | 1018.3 |
| 20260509123324 | 6 | 212 | 0.0 | 0.0 | 0.00 | 0.08 | 0.00 | 95 | 1018.3 |
| 20260509122823 | 6 | 212 | 0.0 | 0.0 | 0.00 | 0.08 | 0.00 | 96 | 1018.2 |
| 20260509122318 | 6 | 212 | 0.0 | 0.0 | 0.00 | 0.08 | 0.00 | 96 | 1018.3 |
| 20260509121814 | 6 | 212 | 0.0 | 0.0 | 0.00 | 0.08 | 0.00 | 96 | 1018.3 |
| 20260509121317 | 6 | 212 | 0.0 | 0.0 | 0.00 | 0.08 | 0.00 | 96 | 1018.3 |
| 20260509120809 | 6 | 212 | 0.0 | 0.0 | 0.00 | 0.08 | 0.00 | 96 | 1018.2 |
| 20260509120300 | 6 | 212 | 0.0 | 0.0 | 0.00 | 0.08 | 0.00 | 96 | 1018.2 |
| 20260509115800 | 6 | 212 | 0.0 | 0.0 | 0.00 | 0.08 | 0.00 | 96 | 1018.1 |
| 20260509115258 | 6 | 212 | 0.0 | 0.0 | 0.00 | 0.08 | 0.00 | 96 | 1017.9 |
| 20260509114754 | 6 | 212 | 0.0 | 0.0 | 0.00 | 0.08 | 0.00 | 96 | 1017.9 |
| 20260509114240 | 6 | 212 | 0.0 | 0.0 | 0.00 | 0.08 | 0.00 | 96 | 1018.1 |
| 20260509113730 | 6 | 212 | 0.0 | 0.0 | 0.00 | 0.08 | 0.00 | 96 | 1017.9 |
| 20260509113450 | 6 | 212 | 0.0 | 0.0 | 0.00 | 0.08 | 0.00 | 96 | 1017.8 |
| 20260509112731 | 6 | 212 | 0.0 | 0.0 | 0.00 | 0.08 | 0.00 | 96 | 1017.8 |
| 20260509112446 | 6 | 212 | 0.0 | 0.0 | 0.00 | 0.08 | 0.00 | 96 | 1017.8 |
| 20260509111943 | 6 | 212 | 0.0 | 0.0 | 0.00 | 0.08 | 0.00 | 96 | 1017.7 |
| 20260509111220 | 6 | 212 | 0.0 | 0.0 | 0.00 | 0.08 | 0.00 | 96 | 1017.7 |
| 20260509110716 | 6 | 212 | 0.0 | 0.0 | 0.00 | 0.08 | 0.00 | 96 | 1017.6 |
| 20260509110213 | 6 | 212 | 0.0 | 0.0 | 0.00 | 0.08 | 0.00 | 96 | 1017.6 |
| 20260509105711 | 6 | 212 | 0.0 | 0.0 | 0.00 | 0.08 | 0.00 | 96 | 1017.6 |
| 20260509105435 | 6 | 212 | 0.0 | 0.0 | 0.00 | 0.08 | 0.00 | 96 | 1017.5 |
| 20260509104710 | 6 | 212 | 0.0 | 0.0 | 0.00 | 0.08 | 0.00 | 96 | 1017.5 |
| 20260509104213 | 6 | 212 | 0.0 | 0.0 | 0.00 | 0.08 | 0.00 | 95 | 1017.5 |
| 20260509103928 | 6 | 212 | 0.0 | 0.0 | 0.00 | 0.08 | 0.00 | 95 | 1017.4 |
| 20260509103202 | 6 | 212 | 0.0 | 0.0 | 0.00 | 0.08 | 0.00 | 95 | 1017.5 |
| 20260509102914 | 7 | 212 | 0.0 | 0.0 | 0.00 | 0.08 | 0.00 | 95 | 1017.4 |
| 20260509102357 | 7 | 212 | 0.0 | 0.0 | 0.00 | 0.08 | 0.00 | 95 | 1017.4 |
| 20260509101637 | 7 | 212 | 0.0 | 0.0 | 0.00 | 0.08 | 0.00 | 95 | 1017.3 |
| 20260509101136 | 7 | 212 | 0.0 | 0.0 | 0.00 | 0.08 | 0.00 | 95 | 1017.3 |
| 20260509100632 | 7 | 212 | 0.0 | 0.0 | 0.00 | 0.08 | 0.00 | 95 | 1017.2 |
| 20260509100132 | 7 | 212 | 0.0 | 0.0 | 0.00 | 0.08 | 0.00 | 95 | 1017.3 |
| 20260509095635 | 7 | 212 | 0.0 | 0.0 | 0.00 | 0.08 | 0.00 | 95 | 1017.2 |
| 20260509095123 | 7 | 212 | 0.0 | 0.0 | 0.00 | 0.08 | 0.00 | 95 | 1017.2 |
| 20260509094623 | 7 | 212 | 0.0 | 0.0 | 0.00 | 0.08 | 0.00 | 95 | 1017.0 |
| 20260509094344 | 7 | 212 | 0.0 | 0.0 | 0.00 | 0.08 | 0.00 | 95 | 1017.0 |
| 20260509094222 | 7 | 212 | 0.0 | 0.0 | 0.00 | 0.08 | 0.00 | 95 | 1017.0 |
| 20260509093121 | 7 | 212 | 0.0 | 0.0 | 0.00 | 0.08 | 0.00 | 95 | 1017.0 |
| 20260509092619 | 7 | 212 | 0.0 | 0.0 | 0.00 | 0.08 | 0.00 | 95 | 1016.9 |
| 20260509092118 | 7 | 212 | 0.0 | 0.0 | 0.00 | 0.08 | 0.00 | 95 | 1016.9 |
| 20260509091604 | 7 | 212 | 0.0 | 0.0 | 0.00 | 0.08 | 0.00 | 95 | 1016.9 |
| 20260509091550 | 7 | 212 | 0.0 | 0.0 | 0.00 | 0.08 | 0.00 | 95 | 1016.9 |
| 20260509090603 | 7 | 212 | 0.0 | 0.0 | 0.00 | 0.08 | 0.00 | 95 | 1016.9 |
| 20260509090322 | 7 | 212 | 0.0 | 0.0 | 0.00 | 0.08 | 0.00 | 95 | 1016.8 |
| 20260509085604 | 7 | 212 | 0.0 | 0.0 | 0.00 | 0.08 | 0.00 | 95 | 1016.7 |
| 20260509085324 | 7 | 212 | 0.0 | 0.0 | 0.00 | 0.08 | 0.00 | 95 | 1016.8 |
| 20260509085048 | 7 | 212 | 0.0 | 0.0 | 0.00 | 0.08 | 0.00 | 95 | 1016.7 |
| 20260509084055 | 7 | 212 | 0.0 | 0.0 | 0.00 | 0.08 | 0.00 | 95 | 1016.7 |
| 20260509083801 | 7 | 212 | 0.0 | 0.0 | 0.00 | 0.08 | 0.00 | 95 | 1016.7 |
| 20260509083034 | 8 | 212 | 0.0 | 0.0 | 0.00 | 0.08 | 0.00 | 95 | 1016.7 |
| 20260509082530 | 8 | 212 | 0.0 | 0.0 | 0.00 | 0.08 | 0.00 | 95 | 1016.8 |
| 20260509082027 | 8 | 212 | 0.0 | 0.0 | 0.00 | 0.08 | 0.00 | 95 | 1016.8 |
| 20260509081525 | 8 | 212 | 0.0 | 0.0 | 0.00 | 0.08 | 0.00 | 95 | 1016.7 |
| 20260509081015 | 8 | 212 | 0.0 | 0.0 | 0.00 | 0.08 | 0.00 | 95 | 1016.8 |
| 20260509080724 | 8 | 212 | 0.0 | 0.0 | 0.00 | 0.08 | 0.00 | 95 | 1016.7 |
| 20260509075956 | 8 | 212 | 0.0 | 0.0 | 0.00 | 0.08 | 0.00 | 95 | 1016.7 |
| 20260509075450 | 8 | 212 | 0.0 | 0.0 | 0.00 | 0.08 | 0.00 | 95 | 1016.7 |
| 20260509074951 | 8 | 212 | 0.0 | 0.0 | 0.00 | 0.08 | 0.00 | 95 | 1016.7 |
| 20260509074450 | 8 | 212 | 0.0 | 0.0 | 0.00 | 0.08 | 0.00 | 95 | 1016.7 |
| 20260509073951 | 8 | 212 | 0.0 | 0.0 | 0.00 | 0.08 | 0.00 | 95 | 1016.7 |
| 20260509073446 | 8 | 212 | 0.0 | 0.0 | 0.00 | 0.08 | 0.00 | 95 | 1016.7 |
| 20260509072941 | 8 | 212 | 0.0 | 0.0 | 0.00 | 0.08 | 0.00 | 95 | 1016.8 |
| 20260509072917 | 8 | 212 | 0.0 | 0.0 | 0.00 | 0.08 | 0.00 | 95 | 1016.7 |
| 20260509071932 | 8 | 212 | 0.0 | 0.0 | 0.00 | 0.08 | 0.00 | 95 | 1016.7 |
| 20260509071433 | 8 | 212 | 0.0 | 0.0 | 0.00 | 0.08 | 0.00 | 95 | 1016.8 |
| 20260509071428 | 8 | 212 | 0.0 | 0.0 | 0.00 | 0.08 | 0.00 | 95 | 1016.8 |
| 20260509070427 | 8 | 212 | 0.0 | 0.0 | 0.00 | 0.08 | 0.00 | 95 | 1016.7 |
| 20260509065918 | 8 | 212 | 0.0 | 0.0 | 0.00 | 0.08 | 0.00 | 95 | 1016.7 |
| 20260509065418 | 8 | 212 | 0.0 | 0.0 | 0.00 | 0.08 | 0.00 | 95 | 1016.7 |
| 20260509065134 | 8 | 212 | 0.0 | 0.0 | 0.00 | 0.08 | 0.00 | 95 | 1016.7 |
| 20260509064408 | 8 | 212 | 0.0 | 0.0 | 0.00 | 0.08 | 0.00 | 95 | 1016.6 |
| 20260509063903 | 9 | 212 | 0.0 | 0.0 | 0.00 | 0.08 | 0.00 | 95 | 1016.6 |
| 20260509063403 | 9 | 212 | 0.0 | 0.0 | 0.00 | 0.08 | 0.00 | 95 | 1016.7 |
| 20260509062906 | 9 | 212 | 0.0 | 0.0 | 0.00 | 0.08 | 0.00 | 95 | 1016.7 |
| 20260509062850 | 9 | 212 | 0.0 | 0.0 | 0.00 | 0.08 | 0.00 | 95 | 1016.6 |
| 20260509061854 | 9 | 212 | 0.0 | 0.0 | 0.00 | 0.08 | 0.00 | 95 | 1016.6 |
| 20260509061353 | 9 | 212 | 0.0 | 3.2 | 0.00 | 0.08 | 0.00 | 95 | 1016.5 |
| 20260509060854 | 9 | 212 | 0.0 | 4.8 | 0.00 | 0.08 | 0.00 | 95 | 1016.6 |
| 20260509060344 | 9 | 212 | 0.0 | 3.2 | 0.00 | 0.08 | 0.00 | 95 | 1016.6 |
| 20260509055844 | 9 | 211 | 0.0 | 0.0 | 0.00 | 0.08 | 0.08 | 95 | 1016.6 |
| 20260509055340 | 9 | 211 | 0.0 | 0.0 | 0.00 | 0.08 | 0.08 | 95 | 1016.6 |
| 20260509054839 | 9 | 211 | 0.0 | 0.0 | 0.00 | 0.08 | 0.08 | 95 | 1016.6 |
| 20260509054343 | 9 | 211 | 0.0 | 0.0 | 0.00 | 0.08 | 0.08 | 95 | 1016.5 |
| 20260509053830 | 9 | 211 | 0.0 | 0.0 | 0.00 | 0.08 | 0.08 | 95 | 1016.5 |
| 20260509053319 | 9 | 211 | 0.0 | 0.0 | 0.00 | 0.08 | 0.08 | 94 | 1016.4 |
| 20260509052821 | 9 | 211 | 0.0 | 0.0 | 0.00 | 0.08 | 0.08 | 94 | 1016.4 |
| 20260509052318 | 9 | 211 | 0.0 | 0.0 | 0.00 | 0.08 | 0.08 | 94 | 1016.4 |
| 20260509052131 | 9 | 211 | 0.0 | 0.0 | 0.00 | 0.08 | 0.08 | 94 | 1016.3 |
| 20260509052027 | 9 | 211 | 0.0 | 0.0 | 0.00 | 0.08 | 0.08 | 94 | 1016.4 |
| 20260509051029 | 9 | 211 | 0.0 | 0.0 | 0.00 | 0.08 | 0.08 | 94 | 1016.4 |
| 20260509050302 | 9 | 211 | 0.0 | 0.0 | 0.00 | 0.08 | 0.08 | 94 | 1016.4 |
| 20260509045803 | 9 | 211 | 0.0 | 0.0 | 0.00 | 0.08 | 0.08 | 94 | 1016.3 |
| 20260509045256 | 9 | 211 | 0.0 | 0.0 | 0.00 | 0.08 | 0.08 | 94 | 1016.3 |
| 20260509045021 | 9 | 211 | 0.0 | 1.6 | 0.00 | 0.08 | 0.08 | 94 | 1016.0 |
| 20260509044507 | 10 | 211 | 0.0 | 1.6 | 0.00 | 0.08 | 0.08 | 94 | 1016.2 |
| 20260509043742 | 10 | 212 | 0.0 | 0.0 | 0.00 | 0.08 | 0.08 | 94 | 1016.0 |
| 20260509043242 | 10 | 212 | 0.0 | 0.0 | 0.00 | 0.08 | 0.08 | 94 | 1016.2 |
| 20260509043002 | 10 | 212 | 0.0 | 0.0 | 0.00 | 0.08 | 0.08 | 93 | 1016.2 |
| 20260509042242 | 10 | 212 | 0.0 | 0.0 | 0.00 | 0.08 | 0.08 | 93 | 1016.0 |
| 20260509041733 | 10 | 212 | 0.0 | 1.6 | 0.00 | 0.08 | 0.08 | 93 | 1016.0 |
| 20260509041230 | 10 | 212 | 0.0 | 1.6 | 0.00 | 0.08 | 0.08 | 93 | 1015.9 |
| 20260509040728 | 10 | 212 | 0.0 | 0.0 | 0.00 | 0.08 | 0.08 | 93 | 1015.9 |
| 20260509040223 | 10 | 212 | 0.0 | 0.0 | 0.00 | 0.08 | 0.08 | 93 | 1015.9 |
| 20260509035723 | 10 | 212 | 0.0 | 0.0 | 0.00 | 0.08 | 0.08 | 93 | 1015.9 |
| 20260509035223 | 10 | 212 | 0.0 | 0.0 | 0.00 | 0.08 | 0.08 | 93 | 1015.8 |
| 20260509034718 | 10 | 212 | 0.0 | 0.0 | 0.00 | 0.08 | 0.08 | 93 | 1015.9 |
| 20260509034432 | 10 | 212 | 0.0 | 0.0 | 0.00 | 0.08 | 0.08 | 93 | 1015.8 |
| 20260509033934 | 10 | 212 | 0.0 | 0.0 | 0.00 | 0.08 | 0.08 | 92 | 1015.8 |
| 20260509033212 | 10 | 212 | 0.0 | 0.0 | 0.00 | 0.08 | 0.08 | 92 | 1015.8 |
| 20260509032654 | 10 | 212 | 0.0 | 0.0 | 0.00 | 0.08 | 0.08 | 92 | 1015.7 |
| 20260509032154 | 10 | 212 | 0.0 | 0.0 | 0.00 | 0.08 | 0.08 | 92 | 1015.6 |
| 20260509031656 | 10 | 212 | 0.0 | 0.0 | 0.00 | 0.08 | 0.08 | 91 | 1015.6 |
| 20260509031154 | 10 | 212 | 0.0 | 0.0 | 0.00 | 0.08 | 0.08 | 91 | 1015.5 |
| 20260509030651 | 10 | 212 | 0.0 | 0.0 | 0.00 | 0.08 | 0.08 | 91 | 1015.4 |
| 20260509030140 | 10 | 212 | 0.0 | 0.0 | 0.00 | 0.08 | 0.08 | 91 | 1015.3 |
| 20260509025901 | 11 | 212 | 0.0 | 0.0 | 0.00 | 0.08 | 0.08 | 91 | 1015.1 |
| 20260509025124 | 11 | 212 | 0.0 | 3.2 | 0.00 | 0.08 | 0.08 | 91 | 1015.0 |
| 20260509024851 | 11 | 212 | 0.0 | 3.2 | 0.00 | 0.08 | 0.08 | 90 | 1015.0 |
| 20260509024110 | 11 | 212 | 0.0 | 0.0 | 0.00 | 0.08 | 0.08 | 90 | 1014.8 |
| 20260509023604 | 11 | 212 | 0.0 | 0.0 | 0.00 | 0.08 | 0.08 | 90 | 1014.8 |
| 20260509023054 | 11 | 212 | 0.0 | 0.0 | 0.00 | 0.08 | 0.08 | 89 | 1014.8 |
| 20260509022555 | 11 | 212 | 0.0 | 0.0 | 0.00 | 0.08 | 0.08 | 89 | 1014.8 |
| 20260509022339 | 11 | 212 | 0.0 | 0.0 | 0.00 | 0.08 | 0.08 | 88 | 1014.7 |
| 20260509021540 | 11 | 212 | 0.0 | 0.0 | 0.05 | 0.08 | 0.08 | 88 | 1014.7 |
| 20260509021306 | 11 | 212 | 0.0 | 0.0 | 0.08 | 0.08 | 0.08 | 87 | 1014.7 |
| 20260509020535 | 12 | 212 | 0.0 | 0.0 | 0.08 | 0.08 | 0.08 | 87 | 1014.7 |
| 20260509020031 | 12 | 212 | 0.0 | 0.0 | 0.08 | 0.08 | 0.08 | 87 | 1014.7 |
| 20260509015521 | 12 | 212 | 0.0 | 9.7 | 0.08 | 0.08 | 0.08 | 85 | 1014.7 |
| 20260509015458 | 12 | 212 | 3.2 | 9.7 | 0.08 | 0.08 | 0.08 | 86 | 1014.7 |
| 20260509014510 | 12 | 254 | 0.0 | 0.0 | 0.08 | 0.08 | 0.08 | 85 | 1014.7 |
| 20260509014010 | 12 | 254 | 0.0 | 0.0 | 0.08 | 0.08 | 0.08 | 85 | 1014.7 |
| 20260509013510 | 13 | 254 | 0.0 | 0.0 | 0.08 | 0.08 | 0.08 | 84 | 1014.7 |
| 20260509013229 | 13 | 254 | 0.0 | 3.2 | 0.08 | 0.08 | 0.08 | 83 | 1014.6 |
| 20260509012508 | 13 | 254 | 0.0 | 3.2 | 0.08 | 0.08 | 0.08 | 83 | 1014.4 |
| 20260509012221 | 13 | 256 | 0.0 | 1.6 | 0.08 | 0.08 | 0.08 | 81 | 1014.1 |
| 20260509011733 | 13 | 256 | 0.0 | 1.6 | 0.03 | 0.03 | 0.03 | 78 | 1014.3 |
| 20260509010947 | 13 | 261 | 0.0 | 0.0 | 0.00 | 0.00 | 0.00 | 75 | 1014.6 |
| 20260509010436 | 13 | 261 | 0.0 | 0.0 | 0.00 | 0.00 | 0.00 | 74 | 1014.4 |
| 20260509005926 | 13 | 261 | 0.0 | 0.0 | 0.00 | 0.00 | 0.00 | 73 | 1013.8 |
| 20260509005426 | 14 | 261 | 0.0 | 0.0 | 0.00 | 0.00 | 0.00 | 72 | 1013.7 |
| 20260509004926 | 14 | 261 | 0.0 | 0.0 | 0.00 | 0.00 | 0.00 | 69 | 1013.7 |
| 20260509004428 | 14 | 261 | 0.0 | 0.0 | 0.00 | 0.00 | 0.00 | 70 | 1013.7 |
| 20260509003928 | 14 | 261 | 0.0 | 0.0 | 0.00 | 0.00 | 0.00 | 70 | 1013.7 |
| 20260509003417 | 14 | 261 | 0.0 | 0.0 | 0.00 | 0.00 | 0.00 | 70 | 1013.7 |
| 20260509002917 | 14 | 261 | 0.0 | 0.0 | 0.00 | 0.00 | 0.00 | 67 | 1013.5 |
| 20260509002412 | 14 | 261 | 0.0 | 0.0 | 0.00 | 0.00 | 0.00 | 67 | 1013.5 |
| 20260509001916 | 14 | 261 | 0.0 | 0.0 | 0.00 | 0.00 | 0.00 | 70 | 1013.4 |
| 20260509001347 | 14 | 261 | 0.0 | 0.0 | 0.00 | 0.00 | 0.00 | 69 | 1013.4 |
| 20260509000847 | 14 | 261 | 0.0 | 0.0 | 0.00 | 0.00 | 0.00 | 67 | 1013.3 |
| 20260509000349 | 14 | 261 | 0.0 | 3.2 | 0.00 | 0.00 | 0.00 | 68 | 1013.3 |
| 20260508235848 | 14 | 261 | 0.0 | 3.2 | 0.00 | 0.00 | 0.00 | 67 | 1013.4 |
| 20260508235348 | 14 | 316 | 0.0 | 3.2 | 0.00 | 0.00 | 0.00 | 69 | 1013.6 |
| 20260508234849 | 14 | 291 | 0.0 | 1.6 | 0.00 | 0.00 | 0.00 | 68 | 1013.5 |
| 20260508234343 | 14 | 291 | 0.0 | 8.0 | 0.00 | 0.00 | 0.00 | 65 | 1013.4 |
| 20260508233839 | 14 | 287 | 0.0 | 8.0 | 0.00 | 0.00 | 0.00 | 67 | 1013.3 |
| 20260508233339 | 15 | 309 | 0.0 | 4.8 | 0.00 | 0.00 | 0.00 | 65 | 1013.3 |
| 20260508232839 | 15 | 295 | 0.0 | 6.4 | 0.00 | 0.00 | 0.00 | 66 | 1013.4 |
| 20260508232603 | 15 | 296 | 0.0 | 6.4 | 0.00 | 0.00 | 0.00 | 63 | 1013.4 |
| 20260508232053 | 16 | 314 | 0.0 | 11.3 | 0.00 | 0.00 | 0.00 | 63 | 1013.5 |
| 20260508231329 | 16 | 89 | 0.0 | 17.7 | 0.00 | 0.00 | 0.00 | 60 | 1013.7 |
| 20260508230824 | 17 | 329 | 6.4 | 17.7 | 0.00 | 0.00 | 0.00 | 56 | 1013.8 |
| 20260508230320 | 18 | 315 | 1.6 | 16.1 | 0.00 | 0.00 | 0.00 | 52 | 1013.7 |
| 20260508225814 | 19 | 324 | 1.6 | 16.1 | 0.00 | 0.00 | 0.00 | 51 | 1013.6 |
| 20260508225314 | 19 | 53 | 0.0 | 1.6 | 0.00 | 0.00 | 0.00 | 54 | 1013.3 |
| 20260508225040 | 19 | 53 | 0.0 | 4.8 | 0.00 | 0.00 | 0.00 | 49 | 1012.9 |
| 20260508224310 | 19 | 52 | 0.0 | 6.4 | 0.00 | 0.00 | 0.00 | 52 | 1012.8 |
| 20260508223806 | 20 | 57 | 0.0 | 9.7 | 0.00 | 0.00 | 0.00 | 49 | 1012.8 |
| 20260508223301 | 20 | 309 | 1.6 | 9.7 | 0.00 | 0.00 | 0.00 | 50 | 1012.8 |
| 20260508223025 | 20 | 24 | 0.0 | 6.4 | 0.00 | 0.00 | 0.00 | 51 | 1012.8 |
| 20260508222245 | 19 | 161 | 0.0 | 6.4 | 0.00 | 0.00 | 0.00 | 50 | 1012.8 |
| 20260508221747 | 19 | 115 | 1.6 | 6.4 | 0.00 | 0.00 | 0.00 | 49 | 1012.8 |
| 20260508221246 | 19 | 43 | 0.0 | 6.4 | 0.00 | 0.00 | 0.00 | 53 | 1012.9 |
| 20260508220749 | 19 | 288 | 0.0 | 6.4 | 0.00 | 0.00 | 0.00 | 51 | 1012.9 |
| 20260508220247 | 19 | 100 | 0.0 | 11.3 | 0.00 | 0.00 | 0.00 | 52 | 1013.0 |
| 20260508215746 | 19 | 323 | 0.0 | 11.3 | 0.00 | 0.00 | 0.00 | 51 | 1013.1 |
| 20260508215242 | 19 | 55 | 0.0 | 4.8 | 0.00 | 0.00 | 0.00 | 52 | 1013.1 |
| 20260508214742 | 19 | 100 | 0.0 | 11.3 | 0.00 | 0.00 | 0.00 | 50 | 1013.3 |
| 20260508214241 | 19 | 253 | 3.2 | 11.3 | 0.00 | 0.00 | 0.00 | 50 | 1013.4 |
| 20260508213745 | 19 | 332 | 0.0 | 11.3 | 0.00 | 0.00 | 0.00 | 52 | 1013.4 |
| 20260508213242 | 20 | 148 | 0.0 | 9.7 | 0.00 | 0.00 | 0.00 | 51 | 1013.4 |
| 20260508212732 | 20 | 140 | 3.2 | 9.7 | 0.00 | 0.00 | 0.00 | 50 | 1013.4 |
| 20260508212232 | 20 | 97 | 0.0 | 6.4 | 0.00 | 0.00 | 0.00 | 50 | 1013.4 |
| 20260508211728 | 20 | 110 | 0.0 | 4.8 | 0.00 | 0.00 | 0.00 | 51 | 1013.4 |
| 20260508211227 | 20 | 333 | 1.6 | 4.8 | 0.00 | 0.00 | 0.00 | 51 | 1013.4 |
| 20260508210728 | 20 | 227 | 1.6 | 8.0 | 0.00 | 0.00 | 0.00 | 50 | 1013.4 |
| 20260508210231 | 19 | 182 | 1.6 | 8.0 | 0.00 | 0.00 | 0.00 | 51 | 1013.3 |
| 20260508205720 | 19 | 349 | 1.6 | 8.0 | 0.00 | 0.00 | 0.00 | 51 | 1013.4 |
| 20260508205218 | 19 | 323 | 4.8 | 14.5 | 0.00 | 0.00 | 0.00 | 50 | 1013.4 |
| 20260508204713 | 19 | 5 | 0.0 | 14.5 | 0.00 | 0.00 | 0.00 | 52 | 1013.5 |
| 20260508204213 | 19 | 30 | 3.2 | 9.7 | 0.00 | 0.00 | 0.00 | 51 | 1013.5 |
| 20260508203713 | 19 | 345 | 1.6 | 9.7 | 0.00 | 0.00 | 0.00 | 51 | 1013.4 |
| 20260508203217 | 19 | 270 | 3.2 | 11.3 | 0.00 | 0.00 | 0.00 | 51 | 1013.4 |
| 20260508202714 | 19 | 309 | 3.2 | 17.7 | 0.00 | 0.00 | 0.00 | 50 | 1013.4 |
| 20260508202215 | 20 | 98 | 4.8 | 17.7 | 0.00 | 0.00 | 0.00 | 50 | 1013.4 |
| 20260508201709 | 20 | 207 | 4.8 | 11.3 | 0.00 | 0.00 | 0.00 | 49 | 1013.5 |
| 20260508201209 | 20 | 213 | 0.0 | 12.9 | 0.00 | 0.00 | 0.00 | 50 | 1013.4 |
| 20260508200709 | 20 | 341 | 3.2 | 14.5 | 0.00 | 0.00 | 0.00 | 51 | 1013.4 |
| 20260508200213 | 20 | 173 | 3.2 | 14.5 | 0.00 | 0.00 | 0.00 | 52 | 1013.5 |
| 20260508195712 | 20 | 205 | 0.0 | 9.7 | 0.00 | 0.00 | 0.00 | 51 | 1013.5 |
| 20260508195206 | 20 | 69 | 3.2 | 14.5 | 0.00 | 0.00 | 0.00 | 50 | 1013.5 |
| 20260508194705 | 20 | 271 | 0.0 | 14.5 | 0.00 | 0.00 | 0.00 | 50 | 1013.5 |
| 20260508194201 | 20 | 182 | 6.4 | 14.5 | 0.00 | 0.00 | 0.00 | 49 | 1013.5 |
| 20260508193701 | 20 | 183 | 0.0 | 12.9 | 0.00 | 0.00 | 0.00 | 49 | 1013.6 |
| 20260508193201 | 20 | 273 | 0.0 | 9.7 | 0.00 | 0.00 | 0.00 | 50 | 1013.6 |
| 20260508192659 | 20 | 169 | 1.6 | 19.3 | 0.00 | 0.00 | 0.00 | 52 | 1013.5 |